Dewpoint
53 48 47 40 29 30 27 28 32 28 24 33 33 38 42 45 43 37 58 61 66 68 69 71 70 69 69 69 70 70 71 71 71 72 72 71 71 71 70 70 70 69 69 68 67 68 67 67 68
48 43 35 29 25 26 27 30 27 27 35 43 42 42 39 43 53 55 56 66 67 68 69 70 70 69 69 69 70 70 70 71 72 72 72 71 71 71 70 70 70 69 69 68 66 66 67 68 69
34 35 24 25 24 23 21 22 30 28 37 35 40 44 44 45 55 54 61 67 68 68 69 70 70 69 70 70 70 70 70 70 71 72 72 71 70 70 70 70 70 70 69 67 66 66 67 67 67
25 22 20 18 20 24 22 15 16 30 33 34 41 39 47 52 53 56 66 68 68 68 69 70 70 70 70 70 70 70 70 70 71 71 71 71 70 70 70 70 70 69 69 67 66 67 67 66 67
21 17 12 15 16 17 14 12 12 25 29 35 39 41 47 53 58 63 66 68 67 68 69 70 69 69 70 70 70 69 70 70 70 71 71 71 71 70 70 70 70 69 69 68 67 66 66 65 65
16 16 11 7 12 13 12 12 12 19 26 37 42 47 48 57 59 62 64 66 68 68 68 69 69 70 70 70 70 69 69 70 70 71 71 71 70 70 70 70 70 70 69 68 66 64 63 63 62
14 14 11 12 12 11 10 11 9 12 29 38 47 47 51 56 57 60 63 66 68 68 68 69 69 70 70 70 69 69 69 69 69 70 70 70 70 69 70 70 69 69 68 66 65 64 63 62 62
16 13 12 12 10 8 11 12 10 10 11 43 49 43 48 54 56 61 64 66 67 67 67 68 69 69 69 69 69 68 68 69 69 69 70 69 69 69 69 69 69 68 67 66 64 63 63 62 61
15 11 8 10 9 9 13 9 12 12 13 43 46 47 50 55 58 61 62 64 64 65 66 67 68 68 69 69 68 68 68 68 68 69 69 69 69 69 69 69 69 68 66 65 64 64 63 62 61
15 10 6 12 13 11 9 10 10 9 9 27 44 51 53 55 58 57 58 60 62 63 64 65 66 66 67 68 68 68 68 68 68 68 68 68 68 69 69 69 69 68 66 65 65 65 64 63 62
16 11 11 10 11 12 9 7 9 8 7 19 23 50 53 55 56 56 56 57 59 62 63 64 65 66 66 67 68 68 68 68 68 67 67 66 67 68 68 68 68 67 66 65 65 65 64 64 63
22 18 19 20 16 20 15 11 10 6 7 13 33 51 53 55 55 54 55 56 57 62 63 64 65 65 66 67 66 67 67 67 66 67 66 65 66 66 66 67 67 67 66 64 65 65 64 64 63
25 27 30 30 28 26 21 16 13 11 8 9 50 51 52 53 55 55 55 57 57 59 63 64 65 65 66 67 66 66 66 66 66 66 66 65 64 65 65 65 66 66 66 65 63 64 64 63 63
30 30 28 27 26 25 22 19 13 10 9 13 49 50 52 53 53 56 57 58 58 57 60 65 65 65 66 66 66 66 66 66 66 66 66 65 63 63 64 64 65 65 65 65 63 63 63 62 62
29 22 20 18 21 22 16 12 11 10 9 11 42 49 50 52 53 55 58 58 59 58 58 63 65 66 66 65 65 65 65 65 65 65 65 65 63 63 61 63 63 64 65 64 64 63 62 62 62
13 18 10 15 9 15 14 9 8 10 9 9 16 46 49 51 52 53 56 59 60 59 59 60 62 64 64 64 64 64 64 64 64 64 65 65 63 63 62 62 63 63 63 63 63 62 62 62 61
13 7 16 14 16 15 15 15 16 16 16 12 10 27 47 49 51 52 54 58 60 60 60 59 60 62 63 63 63 63 63 63 63 63 64 65 65 63 62 61 62 63 63 62 62 61 60 59 60
12 13 12 13 12 14 14 13 16 19 19 18 14 11 21 44 48 50 53 55 59 61 61 61 59 60 61 61 62 61 60 62 62 62 62 63 64 64 62 62 61 63 63 62 61 60 60 58 57
13 13 14 15 15 14 15 16 20 22 19 17 17 14 11 11 41 48 51 54 56 60 61 61 61 60 60 59 60 60 59 59 60 61 61 62 63 64 64 62 63 62 61 61 61 60 59 58 58
12 12 13 16 18 20 15 13 12 11 13 19 18 16 15 12 12 22 48 51 54 58 61 62 62 61 60 58 58 60 59 60 60 60 60 61 62 63 63 63 62 62 62 61 61 60 59 59 59
13 10 12 12 15 20 14 11 10 11 17 18 16 16 18 18 16 12 21 48 51 55 59 61 62 62 62 59 58 60 62 62 61 61 60 61 61 62 63 62 62 62 62 61 61 60 59 58 59
16 13 12 11 15 12 18 17 18 14 12 15 17 17 18 19 17 11 11 21 49 52 57 60 61 62 63 61 59 59 61 60 60 61 61 60 61 62 63 62 62 61 62 61 61 61 60 60 58
17 19 15 14 13 15 20 18 15 15 12 14 16 17 19 20 21 21 19 15 20 48 53 58 60 61 62 62 61 59 59 60 60 61 62 61 61 61 62 62 62 61 61 61 60 60 59 59 59
19 18 16 15 17 16 17 18 15 12 12 14 15 20 25 25 26 24 23 24 23 29 49 55 58 60 62 63 62 61 59 58 59 62 62 62 62 62 62 63 62 61 61 60 60 60 60 59 59
19 22 18 12 13 11 15 15 14 18 16 25 28 28 29 29 30 31 30 32 33 24 43 52 56 59 61 63 62 62 60 59 58 60 62 62 63 63 62 63 63 62 62 61 61 61 60 59 59
20 25 19 16 15 20 23 13 19 28 29 29 29 29 27 28 29 29 33 34 38 39 40 51 55 58 60 62 63 62 62 60 60 60 61 62 62 63 63 63 63 63 63 63 62 61 61 60 59
21 20 25 25 28 25 25 20 24 28 28 27 26 27 26 27 29 29 31 37 38 40 43 52 55 58 59 61 63 63 63 62 61 62 62 62 62 62 63 64 64 64 64 63 63 62 61 61 60
28 28 25 28 19 15 16 22 23 26 26 29 26 25 27 29 30 31 32 33 34 35 39 46 50 56 59 60 62 63 63 63 63 62 62 62 63 63 63 63 64 64 64 64 63 63 63 62 61
27 24 27 29 28 22 19 21 24 25 26 29 29 26 28 29 31 32 33 33 33 34 34 37 42 50 52 59 60 62 62 63 63 62 62 62 62 62 63 63 63 63 63 64 64 64 63 63 62
27 23 22 24 22 25 25 24 25 25 28 29 31 33 32 32 32 33 33 33 33 33 34 35 36 42 44 54 55 60 61 62 63 63 63 64 64 64 63 63 63 63 64 64 63 63 63 63 63
Wind_Speed
12 2 4 2 2 4 3 5 1 5 2 5 13 7 13 1 5 4 7 14 25 23 20 21 22 22 24 23 23 23 22 21 19 19 19 20 20 20 20 20 19 17 18 18 18 19 19 20 19
8 4 3 2 1 5 2 3 6 3 8 16 13 7 7 3 3 10 14 14 25 23 20 20 21 23 24 23 22 21 23 22 19 19 18 18 18 19 19 19 18 18 18 19 19 19 19 17 15
1 3 2 3 2 5 2 4 9 8 11 3 3 4 2 12 5 16 13 20 22 21 21 19 21 23 25 23 23 20 20 22 20 19 19 19 17 18 17 17 16 16 17 19 19 19 18 17 17
4 3 5 2 6 6 3 12 11 4 6 3 5 5 4 5 25 13 24 23 22 20 20 20 21 22 25 24 23 22 18 20 20 19 19 19 17 16 16 15 15 15 15 16 17 17 16 16 15
5 4 1 1 6 7 6 13 9 10 4 5 3 3 3 3 14 27 26 23 24 20 19 20 21 22 23 24 23 23 21 18 20 18 18 19 18 16 15 15 15 15 14 14 14 13 13 12 11
2 3 2 8 6 6 10 9 20 11 16 6 5 9 7 9 19 23 23 20 18 22 21 18 19 21 22 22 23 23 23 20 18 18 17 17 17 17 16 15 14 14 13 13 14 14 13 12 11
3 3 4 5 5 3 3 13 17 16 7 3 12 8 2 9 13 23 20 17 16 18 20 17 17 17 20 22 22 23 23 22 20 19 17 16 16 16 14 14 13 13 13 13 13 12 10 9 8
3 2 2 4 2 5 3 7 7 15 11 5 9 6 7 16 22 21 19 17 16 17 17 17 15 15 16 17 22 22 21 21 22 20 19 18 17 16 15 15 14 14 13 13 11 10 9 8 7
2 2 7 6 4 3 1 12 12 14 16 2 7 4 4 23 21 25 23 16 16 16 17 16 17 17 15 15 17 21 21 19 19 20 20 18 13 14 15 14 15 14 13 13 12 10 9 7 5
2 4 8 6 3 3 24 5 12 12 18 6 5 7 26 26 27 29 31 29 23 22 21 20 21 20 18 14 15 14 15 14 14 12 14 13 14 13 11 12 14 14 14 12 11 9 7 5 4
2 6 4 8 12 3 14 28 5 2 15 11 14 13 28 25 26 27 28 36 39 27 22 23 22 21 20 17 15 13 12 12 12 15 15 13 12 11 11 11 11 11 12 11 10 8 7 6 6
5 5 6 9 12 16 12 22 25 7 15 11 15 25 30 29 29 30 30 27 30 28 24 24 23 22 21 15 17 16 15 14 13 13 15 15 13 14 13 13 12 12 11 12 11 10 9 9 9
4 9 17 16 17 17 15 15 18 32 20 24 9 19 25 22 20 19 17 17 20 28 26 25 24 24 22 19 18 17 17 16 14 14 15 14 14 14 13 13 12 11 12 14 14 13 12 12 12
10 18 19 12 20 12 18 16 6 14 5 9 14 21 24 24 23 15 18 21 25 25 28 26 25 23 23 21 20 19 17 16 14 14 15 16 15 14 14 13 13 13 14 13 14 15 15 15 13
8 13 21 17 9 9 10 23 21 14 8 11 16 21 23 25 19 25 22 23 26 25 24 29 27 23 23 23 20 17 16 16 17 16 16 17 16 16 15 14 14 14 13 13 12 14 12 14 13
7 1 6 8 24 11 7 31 9 12 7 15 16 19 24 24 29 26 23 22 20 21 24 24 24 25 25 23 20 18 17 17 17 16 16 19 18 17 16 15 15 13 14 14 14 14 15 15 15
8 8 11 10 19 23 17 26 21 30 19 14 17 21 22 25 28 27 28 27 26 26 25 27 28 28 26 23 19 19 18 18 18 16 17 20 20 19 18 16 14 15 14 15 14 13 14 15 16
15 17 11 17 12 30 32 42 27 26 29 26 18 21 23 23 29 31 31 29 28 28 25 24 26 27 25 19 17 16 16 19 17 18 19 19 20 21 20 16 16 17 15 15 14 15 14 13 16
10 13 17 19 18 21 26 35 34 26 28 26 19 15 20 26 25 27 27 29 29 29 28 30 28 29 28 26 26 24 26 22 19 20 21 21 21 21 21 20 17 19 20 19 18 15 19 17 6
9 15 17 11 18 20 21 36 31 32 32 28 28 25 17 17 26 26 26 27 30 31 35 31 33 30 32 30 28 23 23 20 20 18 21 23 23 23 23 23 20 20 18 18 18 19 13 14 14
11 11 13 22 20 14 18 33 22 23 24 21 23 24 19 17 19 27 26 28 30 33 35 36 37 36 33 34 25 17 16 8 17 21 24 23 24 25 25 24 21 20 20 21 19 22 21 20 12
10 9 14 16 15 11 14 21 24 25 29 27 22 26 25 20 16 10 22 23 30 36 37 38 38 38 36 33 28 33 32 31 31 29 24 23 26 26 26 25 23 21 20 24 20 18 22 18 20
10 14 16 19 19 15 11 19 8 16 25 22 21 23 22 24 21 18 15 18 25 31 36 35 36 38 36 35 34 33 34 32 26 23 25 26 23 28 27 27 25 26 22 23 23 18 22 20 22
14 10 11 16 11 19 13 17 13 6 11 15 22 20 21 21 25 24 20 16 20 26 35 37 36 39 37 37 38 36 37 32 24 25 25 25 25 23 26 26 27 23 23 24 22 20 20 24 22
15 7 7 7 5 20 11 17 12 17 16 17 18 21 22 24 23 26 23 25 22 23 29 35 36 36 35 36 39 37 38 33 32 30 29 27 24 21 28 29 27 26 27 24 21 20 23 23 25
13 3 2 6 11 14 14 8 6 14 21 27 24 22 28 29 28 31 29 25 25 24 21 31 33 34 32 33 37 38 37 30 25 20 20 23 25 27 21 23 24 25 24 23 21 21 22 23 23
6 4 5 3 6 7 5 10 11 28 30 33 31 29 29 30 32 30 30 31 33 33 26 13 19 24 25 29 26 30 28 28 26 19 17 16 17 17 18 17 20 21 21 22 24 23 25 23 24
6 5 2 3 4 5 8 6 20 28 26 29 28 28 25 26 30 32 32 35 35 34 31 30 16 3 8 14 17 18 18 19 18 15 20 20 17 15 17 21 23 24 24 24 23 24 23 23 23
7 8 6 3 2 4 6 6 15 17 14 15 22 19 16 23 23 28 30 32 33 35 36 35 30 23 8 5 11 17 17 17 13 12 15 21 16 24 27 24 23 22 21 21 23 25 25 25 26
1 7 8 5 6 5 5 4 17 20 18 17 20 22 22 23 23 26 29 32 32 33 35 35 34 32 25 18 3 3 4 9 13 11 7 6 26 20 19 18 19 20 22 22 25 26 26 27 26
Wind_Direction
322 222 153 86 33 26 66 27 242 315 105 204 151 179 177 92 168 210 129 142 137 149 165 164 155 147 136 131 127 127 122 119 120 119 122 125 124 121 118 116 114 116 117 116 114 113 112 112 109
330 122 59 74 60 101 343 257 38 3 110 111 117 130 151 155 112 121 129 148 139 147 162 163 158 148 139 135 132 131 129 125 124 121 121 121 123 123 120 119 121 123 122 120 118 117 116 115 110
353 45 55 56 116 166 182 322 13 121 166 8 71 14 212 145 121 149 137 143 135 150 160 164 161 151 143 141 138 134 134 131 130 127 126 122 123 122 121 122 124 126 127 127 126 124 122 118 118
349 19 52 93 246 248 230 340 349 188 260 228 114 91 354 258 151 163 139 139 142 154 161 162 161 155 147 146 143 139 139 137 136 134 131 129 129 128 125 125 126 126 127 127 126 125 123 125 126
41 60 305 170 244 274 340 327 350 246 239 149 78 185 76 57 118 133 142 144 148 155 161 162 162 157 151 150 148 145 144 145 141 141 139 137 135 134 135 137 132 129 127 126 122 119 122 125 128
76 88 210 241 230 295 308 322 352 225 234 137 135 139 160 142 137 145 145 146 150 152 159 163 164 159 155 155 154 152 151 151 148 148 145 141 140 142 146 143 138 137 136 133 132 133 137 140 142
101 114 239 248 259 288 242 354 19 354 42 3 152 150 281 170 157 144 139 133 140 150 158 161 165 164 161 159 159 158 158 156 158 154 152 150 148 150 151 148 146 146 146 143 141 142 150 153 156
102 98 251 250 227 270 247 16 324 341 8 136 146 196 217 187 153 130 125 132 138 151 164 164 163 165 167 166 165 164 165 163 163 162 161 161 159 160 161 158 159 159 159 158 157 159 165 168 176
108 180 240 252 235 256 25 358 328 322 334 218 192 197 197 148 142 134 136 140 149 160 170 174 170 170 174 170 174 168 169 170 170 167 168 166 166 169 170 171 170 169 173 173 173 177 181 189 206
173 211 227 236 264 312 309 6 329 331 327 321 354 69 132 153 160 161 164 166 171 173 177 179 182 181 179 176 174 171 173 173 173 173 173 169 170 173 173 178 180 179 181 184 187 194 204 219 236
179 240 252 290 306 6 319 314 134 326 303 289 313 175 154 169 176 178 180 178 176 173 174 181 182 183 182 176 176 176 175 176 180 176 174 173 172 174 177 179 186 189 192 193 198 212 227 239 252
316 282 306 305 334 330 317 306 310 235 260 287 292 181 167 181 189 188 188 183 175 172 177 180 182 183 184 173 180 180 181 183 186 188 179 177 178 182 185 186 190 192 195 202 204 211 228 251 262
272 323 321 312 310 308 304 289 292 287 284 286 158 163 184 200 199 199 193 188 181 179 178 182 182 183 183 175 179 181 186 189 189 186 186 182 185 189 188 192 189 195 195 204 212 218 228 243 256
321 310 309 317 310 284 286 291 267 277 326 258 183 189 193 201 207 202 193 193 195 189 185 179 185 185 180 180 182 184 184 187 184 187 192 190 189 189 191 195 198 201 200 203 210 217 227 239 248
307 312 318 318 334 302 258 275 251 275 253 246 224 206 203 208 203 211 213 206 197 200 187 184 182 181 183 184 183 185 188 184 188 193 191 193 193 193 192 196 201 206 203 207 211 222 229 240 247
333 329 323 343 337 339 304 277 295 282 250 262 258 232 209 208 209 211 210 213 207 200 196 190 187 186 186 188 185 187 188 188 196 193 193 196 199 196 194 199 205 200 198 204 212 218 230 237 241
22 321 339 336 342 351 7 295 322 332 339 306 271 248 223 216 218 215 208 202 201 202 194 192 191 192 191 189 187 190 189 193 197 195 198 200 199 200 201 204 206 194 199 206 210 219 219 230 239
313 316 304 308 315 314 309 298 302 305 304 300 295 271 256 232 227 222 212 202 199 198 198 199 198 191 190 190 189 193 192 199 197 201 203 202 204 200 202 209 203 194 202 210 208 217 217 228 233
301 307 306 310 295 283 282 282 294 301 299 298 296 288 268 266 247 234 223 211 201 195 195 199 199 199 184 191 193 197 202 199 202 204 205 204 205 203 202 209 204 200 208 212 209 213 224 234 219
307 309 310 293 327 311 287 281 285 287 288 283 285 283 270 253 264 261 232 217 206 199 199 197 201 199 197 196 201 204 198 208 206 205 208 205 203 205 207 210 210 207 211 212 207 209 223 230 196
300 280 285 291 307 309 295 281 283 281 282 287 279 277 278 276 263 253 245 223 210 206 201 200 201 199 201 203 193 193 191 188 201 209 212 207 202 205 207 210 211 210 212 220 213 211 216 235 216
306 245 272 283 303 318 313 291 306 297 293 294 290 291 295 306 340 284 256 242 220 214 206 205 201 199 200 198 196 192 194 202 209 210 208 207 203 207 207 208 206 206 208 221 216 208 216 216 232
276 297 282 285 289 295 290 284 320 330 310 310 309 312 307 310 312 313 276 251 249 231 215 210 207 201 200 194 198 198 203 209 210 204 204 203 202 207 207 208 208 211 210 219 218 207 209 213 229
297 322 287 264 250 274 270 259 289 307 280 284 295 329 340 343 338 326 313 301 275 245 223 216 209 206 199 196 197 200 207 210 201 201 201 204 206 203 208 208 212 214 214 216 216 214 209 215 223
353 6 341 326 291 277 286 247 273 317 320 27 29 10 355 1 358 360 344 347 335 292 226 217 210 210 203 200 197 202 207 209 206 200 202 201 202 202 210 205 207 211 215 218 214 211 216 216 221
314 59 27 305 303 303 307 272 41 17 17 16 2 5 9 0 1 2 357 358 357 337 277 216 209 210 204 203 207 203 208 205 212 214 212 210 204 208 205 207 211 215 215 215 212 215 220 222 222
326 4 304 237 267 274 269 311 345 4 15 13 6 4 7 10 13 5 2 9 10 9 357 328 222 209 207 209 210 213 209 207 199 206 207 223 230 217 202 198 208 216 217 217 214 218 223 222 224
47 331 269 356 315 324 308 45 8 357 9 5 359 3 11 24 16 18 21 21 18 17 15 18 18 13 208 204 211 214 215 219 240 185 209 203 202 205 202 204 208 213 217 216 215 221 226 225 226
7 30 358 313 300 304 299 91 13 358 8 11 342 342 19 17 17 12 19 16 15 13 15 19 14 20 2 226 211 204 199 198 194 198 193 198 201 216 215 210 213 219 219 218 217 221 224 223 226
123 41 37 7 323 292 271 260 41 21 4 1 1 3 10 22 15 22 18 21 14 16 15 12 11 13 15 8 260 188 163 185 190 210 245 236 236 218 216 212 214 220 222 220 221 226 224 224 224